Hourly Data Report for September 02, 2019

QUALICUM BEACH AIRPORT
BRITISH COLUMBIA
Current Station Operator: ECCC - MSC

49°20'14.000" N
124°23'38.000" W
58.20 m
1026562
71766
VOQ

Download Data

Hourly Data (September 2019)
Hourly Data Report for September 2, 2019
TIME
LST
Temp Definition
°C
Dew Point Definition
°C
Rel Hum Definition
%
Precip. Amount Definition
mm

Wind Dir Definition
10's deg

Wind Spd Definition
km/h
Visibility Definition
km
Stn Press Definition
kPa
Hmdx Definition


Wind Chill Definition


Weather Definition


00:00 15.1 13.8 92 0.0 27 6   101.06     LegendNANA
01:00 15.2 13.6 90 0.0 27 6   101.06     LegendNANA
02:00 13.9 13.0 94 0.0 26 6   101.08     LegendNANA
03:00 13.2 12.2 94 0.0 25 3   101.06     LegendNANA
04:00 12.8 12.1 96 0.0 0 1   101.11     LegendNANA
05:00 13.5 12.8 95 0.0 27 2   101.16     LegendNANA
06:00 14.2 13.5 96 0.0 28 4   101.18     LegendNANA
07:00 16.1 15.0 93 0.0 30 3   101.22     LegendNANA
08:00 17.6 14.9 85 0.0 32 6   101.25     LegendNANA
09:00 17.9 15.0 83 0.0 29 9   101.28     LegendNANA
10:00 19.3 15.2 77 0.0 35 8   101.27     LegendNANA
11:00 19.9 15.2 74 0.0 1 8   101.28     LegendNANA
12:00 21.2 15.0 68 0.0 31 11   101.26 25   LegendNANA
13:00 21.5 14.6 65 0.0 33 9   101.23 25   LegendNANA
14:00 23.1 14.2 58 0.0 32 11   101.13 27   LegendNANA
15:00 23.5 14.1 55 0.0 33 9   101.06 27   LegendNANA
16:00 24.1 13.9 53 0.0 32 10   101.01 27   LegendNANA
17:00 23.4 13.7 55 0.0 31 10   100.96 27   LegendNANA
18:00 23.3 12.8 52 0.0 33 5   100.93 26   LegendNANA
19:00 19.4 13.7 70 0.0 25 4   100.92     LegendNANA
20:00 20.1 14.2 69 0.0 23 6   100.91     LegendNANA
21:00 17.2 14.1 82 0.0 24 6   100.90     LegendNANA
22:00 17.0 13.6 80 0.0 27 5   100.89     LegendNANA
23:00 16.2 13.3 83 0.0 29 2   100.92     LegendNANA

Notes on Data Quality.

Legend

  • E = Estimated
  • M = Missing
  • NA = Not Available*
  • [empty] = Indicates an unobserved value
Date modified: